Weather History for KW43 - December, 2013

Change the Weather History Date:

Tuesday, December 3, 2013

  Actual Average (KEFC) Record (KEFC)
Temperature  
Mean Temperature 18 °F -  
Max Temperature 30 °F 41 °F 64 °F (1948)
Min Temperature 5 °F 14 °F -9 °F (1978)
Degree Days  
Heating Degree Days 48    
Moisture  
Dew Point 12 °F    
Average Humidity 85    
Maximum Humidity 93    
Minimum Humidity 78    
Precipitation  
Precipitation 0.00 in - - ()
Sea Level Pressure  
Sea Level Pressure 29.75 in    
Wind  
Wind Speed 9 mph (North)    
Max Wind Speed 15 mph    
Max Gust Speed 22 mph    
Visibility 3 miles    
Events Snow    
Averages and records for this station are not official NWS values.
T = Trace of Precipitation, MM = Missing Value Source: NWS Daily Summary

Daily Weather History Graph

Daily Weather History Graph

Search for Another Location

Airport or City:

Trip Planner

Search our weather history database for the weather conditions in past years. The results will help you decide how hot, cold, wet, or windy it might be!

Date:

Astronomy

Dec. 03, 2013 Rise Set
Actual Time 7:17 AM MST 4:18 PM MST
Civil Twilight 6:44 AM MST 4:51 PM MST
Nautical Twilight 6:08 AM MST 5:28 PM MST
Astronomical Twilight 5:32 AM MST 6:03 PM MST
Moon 7:48 AM MST (12/3) 5:25 PM MST (12/3)
Length of Visible Light 10h 06m
Length of Day
9h 00m
New Moon, 1% of the Moon is Illuminated
Dec 3
New Moon
Dec 9
First Quarter
Dec 17
Full
Dec 25
Last Quarter
Jan 1
New

Hourly Weather History & Observations

Time (MST) Temp. Windchill Dew Point Humidity Pressure Visibility Wind Dir Wind Speed Gust Speed Precip Events Conditions
12:15 AM 30.2 °F 21.9 °F 28.4 °F 93% 29.52 in 1.2 mi NE 9.2 mph 17.3 mph N/A Snow Light Snow
12:35 AM 30.2 °F 21.3 °F 28.4 °F 93% 29.51 in 1.0 mi ENE 10.4 mph 21.9 mph N/A Snow Light Snow
12:55 AM 28.4 °F 19.1 °F 26.6 °F 93% 29.52 in 1.2 mi ENE 10.4 mph - N/A Snow Light Snow
1:15 AM 28.4 °F 19.7 °F 24.8 °F 86% 29.53 in 2.5 mi ENE 9.2 mph 17.3 mph N/A Snow Light Snow
1:35 AM 28.4 °F 20.4 °F 23.0 °F 80% 29.53 in 3.0 mi ENE 8.1 mph - N/A Snow Light Snow
1:55 AM 26.6 °F 14.7 °F 23.0 °F 86% 29.53 in 7.0 mi ENE 15.0 mph 18.4 mph N/A   Overcast
2:15 AM 26.6 °F 15.7 °F 23.0 °F 86% 29.54 in 10.0 mi ENE 12.7 mph 16.1 mph N/A   Overcast
2:35 AM 24.8 °F 14.6 °F 21.2 °F 86% 29.54 in 5.0 mi NE 10.4 mph 19.6 mph N/A   Overcast
2:55 AM 24.8 °F 17.9 °F 21.2 °F 86% 29.56 in 4.0 mi NNE 5.8 mph - N/A   Overcast
3:15 AM - - - N/A% 29.56 in 1.8 mi ENE 9.2 mph - N/A   Unknown
3:35 AM 23.0 °F 12.4 °F 19.4 °F 86% 29.57 in 1.2 mi NE 10.4 mph - N/A Snow Light Snow
3:55 AM 21.2 °F 10.9 °F 19.4 °F 93% 29.59 in 1.0 mi NE 9.2 mph - N/A Snow Light Snow
4:15 AM 21.2 °F 8.9 °F 17.6 °F 86% 29.59 in 0.8 mi NNE 12.7 mph - N/A Snow Light Snow
4:35 AM 19.4 °F 7.9 °F 17.6 °F 93% 29.62 in 0.8 mi NNE 10.4 mph 16.1 mph N/A Snow Light Snow
4:55 AM 19.4 °F 8.6 °F 17.6 °F 93% 29.63 in 0.5 mi NNE 9.2 mph - N/A Snow Light Snow
5:15 AM 19.4 °F 9.5 °F 17.6 °F 93% 29.64 in 0.8 mi NNE 8.1 mph - N/A Snow Light Snow
5:35 AM 19.4 °F 7.9 °F 15.8 °F 86% 29.64 in 1.8 mi NNE 10.4 mph 16.1 mph N/A Snow Light Snow
5:55 AM 17.6 °F 6.4 °F 14.0 °F 86% 29.66 in 4.0 mi NNE 9.2 mph - N/A Snow Light Snow
6:15 AM 17.6 °F 6.4 °F 15.8 °F 93% 29.69 in 7.0 mi North 9.2 mph - N/A Snow Light Snow
6:35 AM 17.6 °F 5.7 °F 14.0 °F 86% 29.65 in 10.0 mi NE 10.4 mph - N/A   Overcast
6:55 AM 17.6 °F 8.2 °F 14.0 °F 86% 29.68 in 7.0 mi North 6.9 mph - N/A   Overcast
7:15 AM 17.6 °F 5.7 °F 14.0 °F 86% 29.70 in 5.0 mi North 10.4 mph - N/A Snow Light Snow
7:35 AM 17.6 °F - 14.0 °F 86% 29.72 in 3.0 mi North - - N/A Snow Light Snow
7:55 AM 17.6 °F 9.3 °F 14.0 °F 86% 29.73 in 2.5 mi NNE 5.8 mph - N/A Snow Light Snow
8:15 AM 17.6 °F 8.2 °F 14.0 °F 86% 29.73 in 3.0 mi North 6.9 mph - N/A Snow Light Snow
8:35 AM 17.6 °F 8.2 °F 14.0 °F 86% 29.73 in 1.0 mi North 6.9 mph - N/A Snow Light Snow
8:55 AM 17.6 °F 9.3 °F 14.0 °F 86% 29.73 in 0.8 mi North 5.8 mph - N/A Snow Light Snow
9:15 AM 17.6 °F 8.2 °F 14.0 °F 86% 29.74 in 1.0 mi North 6.9 mph - N/A Snow Light Snow
9:34 AM 17.6 °F 9.3 °F 14.0 °F 86% 29.75 in 1.0 mi NNE 5.8 mph - N/A Snow Light Snow
10:15 AM 17.6 °F 10.7 °F 12.2 °F 79% 29.78 in 1.0 mi NNW 4.6 mph - N/A Snow Light Snow
10:35 AM 17.6 °F 10.7 °F 14.0 °F 86% 29.77 in 1.2 mi NNW 4.6 mph - N/A Snow Light Snow
10:55 AM 17.6 °F 9.3 °F 12.2 °F 79% 29.79 in 1.8 mi NW 5.8 mph - N/A Snow Light Snow
11:15 AM 17.6 °F 8.2 °F 14.0 °F 86% 29.78 in 1.0 mi NW 6.9 mph - N/A Snow Light Snow
11:35 AM 15.8 °F 5.1 °F 12.2 °F 86% 29.79 in 1.5 mi NW 8.1 mph - N/A Snow Light Snow
11:55 AM 14.0 °F 3.9 °F 10.4 °F 86% 29.77 in 2.0 mi NW 6.9 mph - N/A Snow Light Snow
12:15 PM 15.8 °F - 10.4 °F 79% 29.78 in 2.5 mi North - - N/A Snow Light Snow
12:35 PM 15.8 °F - 10.4 °F 79% 29.80 in 3.0 mi North - - N/A Snow Light Snow
12:55 PM 14.0 °F - 10.4 °F 86% 29.79 in 3.0 mi North - - N/A Snow Light Snow
1:15 PM 14.0 °F 2.0 °F 10.4 °F 86% 29.73 in 2.5 mi North 9.2 mph 17.3 mph N/A Snow Light Snow
1:35 PM 14.0 °F -0.2 °F 10.4 °F 86% 29.75 in 3.0 mi NNW 12.7 mph - N/A Snow Light Snow
1:55 PM 14.0 °F 5.1 °F 10.4 °F 86% 29.78 in 2.0 mi NW 5.8 mph - N/A Snow Light Snow
2:15 PM 14.0 °F 2.0 °F 10.4 °F 86% 29.78 in 2.0 mi NNW 9.2 mph - N/A Snow Light Snow
2:35 PM 14.0 °F - 10.4 °F 86% 29.75 in 2.5 mi North - - N/A Snow Light Snow
2:55 PM 14.0 °F - 10.4 °F 86% 29.80 in 2.5 mi North - - N/A Snow Light Snow
3:15 PM 14.0 °F - 10.4 °F 86% 29.82 in 2.5 mi North - - N/A Snow Light Snow
3:35 PM 14.0 °F - 10.4 °F 86% 29.82 in 4.0 mi North - - N/A Snow Light Snow
3:55 PM 14.0 °F - 10.4 °F 86% 29.81 in 4.0 mi North - - N/A Snow Light Snow
4:15 PM 14.0 °F - 8.6 °F 79% 29.82 in 4.0 mi North - - N/A Snow Light Snow
4:35 PM 12.2 °F 0.7 °F 8.6 °F 85% 29.82 in 7.0 mi NW 8.1 mph - N/A Snow Light Snow
4:55 PM 12.2 °F -0.2 °F 8.6 °F 85% 29.82 in 4.0 mi NNW 9.2 mph - N/A Snow Light Snow
5:15 PM 12.2 °F 0.7 °F 8.6 °F 85% 29.82 in 2.0 mi NNW 8.1 mph - N/A Snow Light Snow
5:35 PM 12.2 °F - 6.8 °F 79% 29.82 in 4.0 mi North - - N/A Snow Light Snow
5:55 PM 10.4 °F -1.5 °F 6.8 °F 85% 29.84 in 5.0 mi NW 8.1 mph - N/A Snow Light Snow
6:15 PM 10.4 °F 0.8 °F 6.8 °F 85% 29.86 in 2.0 mi NNW 5.8 mph - N/A Snow Light Snow
6:35 PM 10.4 °F - 5.0 °F 79% 29.85 in 4.0 mi North - - N/A Snow Light Snow
6:55 PM 10.4 °F - 5.0 °F 79% 29.87 in 4.0 mi North - - N/A Snow Light Snow
7:15 PM 10.4 °F - 5.0 °F 79% 29.88 in 3.0 mi North - - N/A Snow Light Snow
7:35 PM 10.4 °F - 5.0 °F 79% 29.88 in 1.8 mi North - - N/A Snow Light Snow
7:55 PM 8.6 °F - 5.0 °F 85% 29.88 in 1.8 mi North - - N/A Snow Light Snow
8:15 PM 8.6 °F -2.6 °F 3.2 °F 79% 29.88 in 2.0 mi NW 6.9 mph - N/A Snow Light Snow
8:35 PM 8.6 °F - 3.2 °F 79% 29.88 in 2.5 mi North - - N/A Snow Light Snow
8:55 PM 8.6 °F -4.7 °F 3.2 °F 79% 29.89 in 7.0 mi WNW 9.2 mph - N/A   Overcast
9:15 PM 6.8 °F -5.9 °F 3.2 °F 85% 29.88 in 2.5 mi NW 8.1 mph 17.3 mph N/A Snow Light Snow
9:35 PM 6.8 °F -6.9 °F 1.4 °F 79% 29.88 in 7.0 mi WNW 9.2 mph - N/A   Overcast
9:55 PM 5.0 °F -8.1 °F 1.4 °F 85% 29.88 in 7.0 mi NW 8.1 mph - N/A   Overcast
10:15 PM 5.0 °F -8.1 °F 1.4 °F 85% 29.89 in 5.0 mi WNW 8.1 mph - N/A Snow Light Snow
10:35 PM 5.0 °F -9.1 °F 1.4 °F 85% 29.89 in 4.0 mi NW 9.2 mph - N/A Snow Light Snow
10:55 PM 5.0 °F -6.9 °F 1.4 °F 85% 29.89 in 3.0 mi WNW 6.9 mph - N/A Snow Light Snow
11:15 PM 5.0 °F -5.6 °F -0.4 °F 78% 29.90 in 4.0 mi WNW 5.8 mph - N/A Snow Light Snow
11:35 PM 5.0 °F -6.9 °F 1.4 °F 85% 29.90 in 2.5 mi NW 6.9 mph - N/A Snow Light Snow
11:55 PM 5.0 °F -10.0 °F 1.4 °F 85% 29.89 in 2.5 mi NNW 10.4 mph - N/A Snow Light Snow